Location: Julian California
(33.0790°N, 116.6010°W)
Time: 11:00:44
(UTC-07:00)

Cosmos 1818 - Pass Details

Date: 19 May 2017
Orbit: 778 x 796 km, 65.0° (Epoch: 25 September)

Event Time Altitude Azimuth Distance (km) Brightness Sun altitude
Rises 20:45:05 0° 187° (S) 3,243 6.5 -12.3°
Reaches altitude 10° 20:47:36 10° 180° (S) 2,321 5.7 -12.7°
Maximum altitude 20:52:32 39° 112° (ESE) 1,149 3.9 -13.6°
Drops below altitude 10° 20:57:31 10° 44° (NE) 2,344 5.9 -14.4°
Sets 21:00:04 0° 37° (NE) 3,280 6.8 -14.9°
